Total_Precipitation_Accumulation
0.00 0.02 0.07 0.10 0.11 0.13 0.13 0.13 0.14 0.14 0.15 0.12 0.11 0.10 0.10 0.10 0.14 0.19 0.20 0.14 0.10 0.10 0.10 0.18 0.23 0.17 0.19 0.25 0.29 0.33 0.39 0.41 0.32 0.25 0.25 0.25 0.21 0.21 0.26 0.28 0.38 0.46 0.22
0.00 0.02 0.07 0.12 0.12 0.13 0.13 0.11 0.13 0.14 0.11 0.10 0.10 0.10 0.09 0.11 0.17 0.17 0.13 0.09 0.06 0.07 0.10 0.18 0.24 0.21 0.22 0.29 0.40 0.48 0.52 0.46 0.36 0.26 0.31 0.33 0.28 0.26 0.28 0.28 0.43 0.45 0.22
0.00 0.01 0.05 0.10 0.12 0.11 0.11 0.10 0.17 0.18 0.11 0.10 0.11 0.10 0.08 0.08 0.09 0.09 0.09 0.06 0.05 0.05 0.07 0.15 0.23 0.23 0.24 0.34 0.45 0.48 0.49 0.47 0.37 0.31 0.54 0.94 0.67 0.36 0.31 0.38 0.38 0.28 0.24
0.00 0.01 0.03 0.08 0.14 0.13 0.10 0.14 0.28 0.27 0.17 0.12 0.11 0.09 0.05 0.05 0.10 0.17 0.17 0.06 0.04 0.05 0.05 0.13 0.21 0.20 0.24 0.33 0.39 0.38 0.38 0.35 0.37 0.48 0.90 1.17 0.99 0.56 0.53 0.52 0.42 0.29 0.26
0.00 0.02 0.12 0.15 0.13 0.12 0.15 0.25 0.38 0.34 0.28 0.19 0.10 0.06 0.05 0.05 0.08 0.15 0.11 0.06 0.03 0.03 0.05 0.11 0.18 0.18 0.19 0.24 0.28 0.28 0.34 0.43 0.52 0.65 0.90 0.96 0.92 0.67 0.61 0.57 0.51 0.37 0.31
0.00 0.03 0.10 0.15 0.13 0.14 0.22 0.34 0.37 0.39 0.43 0.27 0.12 0.07 0.08 0.08 0.10 0.13 0.11 0.06 0.03 0.02 0.04 0.06 0.11 0.17 0.19 0.22 0.23 0.28 0.38 0.51 0.61 0.72 0.85 0.85 0.77 0.57 0.52 0.50 0.50 0.45 0.37
0.00 0.02 0.05 0.15 0.15 0.18 0.27 0.36 0.33 0.38 0.43 0.31 0.12 0.11 0.13 0.08 0.08 0.11 0.13 0.05 0.02 0.01 0.01 0.03 0.07 0.11 0.16 0.21 0.22 0.26 0.33 0.32 0.44 0.59 0.82 0.86 0.59 0.38 0.42 0.45 0.46 0.46 0.42
0.00 0.01 0.04 0.11 0.13 0.18 0.28 0.38 0.32 0.33 0.35 0.24 0.14 0.14 0.10 0.09 0.09 0.11 0.09 0.04 0.01 0.00 0.00 0.02 0.07 0.09 0.12 0.16 0.21 0.26 0.27 0.22 0.29 0.31 0.41 0.63 0.55 0.40 0.32 0.40 0.45 0.40 0.37
0.03 0.02 0.03 0.05 0.06 0.11 0.22 0.34 0.38 0.37 0.33 0.19 0.14 0.11 0.11 0.11 0.08 0.06 0.04 0.02 0.01 0.00 0.00 0.01 0.04 0.06 0.07 0.10 0.15 0.19 0.22 0.18 0.24 0.22 0.24 0.40 0.38 0.30 0.26 0.31 0.41 0.46 0.43
0.04 0.02 0.03 0.06 0.10 0.18 0.19 0.26 0.39 0.46 0.39 0.24 0.17 0.14 0.12 0.08 0.05 0.04 0.01 0.01 0.00 0.00 0.00 0.01 0.01 0.03 0.05 0.06 0.10 0.15 0.17 0.16 0.20 0.17 0.18 0.24 0.28 0.27 0.26 0.23 0.25 0.26 0.28
0.06 0.03 0.04 0.07 0.11 0.20 0.30 0.31 0.46 0.56 0.46 0.27 0.19 0.14 0.13 0.13 0.16 0.14 0.03 0.01 0.00 0.00 0.00 0.01 0.01 0.01 0.01 0.03 0.08 0.13 0.10 0.13 0.18 0.15 0.13 0.12 0.16 0.17 0.18 0.15 0.13 0.14 0.13
0.13 0.11 0.07 0.06 0.08 0.14 0.24 0.55 0.78 0.68 0.57 0.35 0.38 0.25 0.26 0.31 0.35 0.22 0.09 0.03 0.01 0.00 0.00 0.01 0.01 0.01 0.00 0.00 0.03 0.06 0.07 0.09 0.13 0.10 0.07 0.08 0.09 0.08 0.08 0.07 0.06 0.07 0.06
0.20 0.18 0.14 0.10 0.08 0.11 0.26 0.52 0.78 0.92 0.87 0.79 0.58 0.39 0.38 0.26 0.17 0.10 0.07 0.08 0.05 0.01 0.00 0.01 0.00 0.00 0.00 0.01 0.01 0.03 0.05 0.06 0.11 0.11 0.06 0.05 0.07 0.08 0.08 0.06 0.04 0.03 0.03
0.32 0.31 0.25 0.20 0.15 0.14 0.17 0.26 0.40 0.48 0.53 0.56 0.40 0.26 0.33 0.29 0.17 0.12 0.09 0.09 0.07 0.03 0.01 0.01 0.00 0.00 0.00 0.01 0.01 0.02 0.03 0.04 0.15 0.19 0.13 0.09 0.10 0.13 0.13 0.08 0.04 0.04 0.04
0.41 0.48 0.45 0.34 0.30 0.26 0.25 0.27 0.26 0.34 0.38 0.36 0.39 0.30 0.27 0.25 0.16 0.12 0.06 0.05 0.04 0.03 0.01 0.01 0.00 0.00 0.00 0.01 0.01 0.03 0.04 0.06 0.16 0.15 0.18 0.22 0.24 0.27 0.25 0.21 0.14 0.08 0.06
0.48 0.55 0.60 0.51 0.45 0.41 0.36 0.34 0.31 0.37 0.41 0.40 0.32 0.25 0.25 0.26 0.17 0.13 0.07 0.05 0.04 0.03 0.02 0.00 0.00 0.00 0.00 0.00 0.00 0.01 0.02 0.04 0.10 0.12 0.16 0.25 0.35 0.31 0.35 0.37 0.30 0.19 0.15
0.52 0.54 0.57 0.58 0.57 0.55 0.53 0.50 0.46 0.50 0.54 0.50 0.42 0.31 0.27 0.28 0.24 0.18 0.13 0.09 0.06 0.04 0.03 0.01 0.00 0.00 0.00 0.00 0.00 0.00 0.01 0.01 0.01 0.02 0.04 0.08 0.20 0.32 0.40 0.41 0.36 0.30 0.24
0.46 0.46 0.51 0.53 0.57 0.63 0.65 0.66 0.68 0.66 0.69 0.61 0.55 0.44 0.34 0.31 0.30 0.32 0.25 0.18 0.12 0.09 0.06 0.04 0.02 0.01 0.00 0.00 0.00 0.00 0.00 0.00 0.00 0.00 0.01 0.02 0.07 0.15 0.28 0.29 0.28 0.30 0.27
0.41 0.41 0.43 0.47 0.50 0.61 0.69 0.71 0.79 0.81 0.82 0.77 0.72 0.59 0.53 0.51 0.49 0.51 0.48 0.40 0.29 0.20 0.12 0.07 0.04 0.02 0.01 0.01 0.00 0.00 0.00 0.00 0.00 0.00 0.01 0.01 0.02 0.05 0.10 0.09 0.09 0.11 0.15
0.32 0.34 0.38 0.43 0.45 0.52 0.67 0.79 0.94 1.05 1.01 1.02 0.94 0.79 0.78 0.86 0.93 0.97 0.86 0.78 0.65 0.45 0.32 0.20 0.15 0.10 0.06 0.04 0.02 0.02 0.01 0.00 0.00 0.00 0.01 0.01 0.01 0.01 0.02 0.02 0.05 0.04 0.04
0.22 0.25 0.31 0.34 0.42 0.50 0.58 0.72 0.94 1.21 1.30 1.39 1.32 1.13 1.05 1.13 1.31 1.43 1.32 1.22 1.03 0.81 0.68 0.57 0.57 0.52 0.33 0.12 0.12 0.10 0.04 0.01 0.01 0.01 0.01 0.01 0.02 0.02 0.01 0.01 0.02 0.05 0.03
0.15 0.17 0.22 0.30 0.39 0.48 0.57 0.74 0.90 1.05 1.05 1.21 1.35 1.30 1.18 1.15 1.26 1.37 1.53 1.48 1.25 1.14 1.16 1.10 1.19 1.18 0.77 0.35 0.33 0.39 0.27 0.18 0.06 0.02 0.02 0.02 0.02 0.04 0.03 0.02 0.01 0.02 0.02
0.10 0.12 0.15 0.21 0.32 0.45 0.60 0.84 1.05 1.23 1.31 1.37 1.28 1.35 1.32 1.22 1.24 1.30 1.43 1.52 1.40 1.35 1.35 1.37 1.53 1.74 1.39 0.88 0.61 0.66 0.58 0.54 0.35 0.10 0.04 0.04 0.04 0.03 0.04 0.04 0.03 0.04 0.03
0.08 0.08 0.12 0.20 0.35 0.56 0.77 1.02 1.27 1.47 1.50 1.39 1.43 1.45 1.30 1.21 1.16 1.20 1.29 1.39 1.45 1.40 1.44 1.41 1.37 1.66 1.78 1.43 1.10 0.81 0.62 0.55 0.52 0.40 0.17 0.07 0.07 0.05 0.05 0.05 0.04 0.04 0.04
0.14 0.16 0.23 0.43 0.67 0.93 1.14 1.38 1.66 1.67 1.55 1.45 1.44 1.41 1.35 1.32 1.28 1.25 1.35 1.38 1.35 1.36 1.41 1.59 1.65 1.78 1.86 1.70 1.50 1.28 1.09 0.88 0.57 0.58 0.56 0.30 0.15 0.10 0.06 0.05 0.05 0.04 0.03
0.44 0.58 0.78 1.04 1.24 1.32 1.44 1.58 1.69 1.67 1.68 1.61 1.41 1.32 1.30 1.32 1.36 1.40 1.45 1.40 1.31 1.30 1.36 1.51 1.68 1.79 1.92 1.94 1.68 1.40 1.28 1.13 1.01 0.88 0.70 0.59 0.42 0.21 0.10 0.07 0.06 0.05 0.05